Flag for Poland Weather past 2 weeks in Włocławek, Poland

Now
69 °F

Passing clouds.


Feels Like: 69 °F
Forecast: 52 / 72 °F
Wind: 2 mph from East

Location: Plock

Current Time: Sep 20, 2014 at 2:03:10 PM

Latest Report: Sep 20, 2014 at 1:00 PM


Visibility: 9 mi

Pressure: 29.94 "Hg

Humidity: 69%

Dew point: 58 °F

Location of WłocławekLocation

Historic Weather in Włocławek — Graph

°F

Włocławek temperature yesterday

Maximum temperature yesterday: 70 °F (at 2:00 PM)
Minimum temperature yesterday: 53 °F (at 8:00 AM)
Average temperature yesterday: 62 °F

Past Weeks' High & Low Weather Summary

 TemperatureHumidityPressure
High79 °F (Sep 13, 3:00 PM)99% (Sep 9, 2:00 AM)30.25 "Hg (Sep 9, 2:00 AM)
Low48 °F (Sep 6, 6:00 AM)37% (Sep 16, 4:00 PM)29.94 "Hg (Sep 7, 4:00 PM)
Average62 °F74%30.07 "Hg
* Reported Sep 5 12:00 Noon — Sep 20 12:00 Noon, Włocławek, Weather by CustomWeather, © 2014

Note: Actual official high and low records may vary slightly from our data, if they occured in-between our weather recording intervals... More about our weather records

Advertising

Włocławek weather history for previous 24 hours

 ConditionsComfort  
Time TempWeatherWind HumidityBarometerVisibility
12:00 PM
Sep 20
67 °FPassing clouds.2 mph70%29.94 "Hg9 mi
11:00 AM64 °FScattered clouds.2 mph80%29.96 "Hg7 mi
10:00 AM63 °FPartly sunny.3 mph76%29.96 "Hg7 mi
9:00 AM60 °FFog.2 mph89%29.96 "Hg2 mi
8:00 AM58 °FFog.2 mph94%29.97 "Hg3 mi
7:00 AM57 °FFog.2 mph95%29.97 "Hg2 mi
6:00 AM57 °FFog.2 mph96%29.96 "Hg2 mi
5:00 AM57 °FOvercast.2 mph94%29.97 "Hg3 mi
4:00 AM57 °FSprinkles. Overcast.2 mph95%29.98 "Hg2 mi
3:00 AM58 °FFog.1 mph92%29.99 "Hg5 mi
2:00 AM58 °FOvercast.2 mph89%29.99 "Hg6 mi
1:00 AM58 °FOvercast.3 mph85%30.00 "Hg9 mi
12:00 AM59 °FOvercast.3 mph81%30.01 "Hg12 mi
11:00 PM
Sep 19
58 °FLight rain. Overcast.5 mph88%30.02 "Hg6 mi
10:00 PM59 °FLight rain. Overcast.3 mph91%30.03 "Hg5 mi
9:00 PM60 °FRain. Overcast.3 mph91%30.04 "Hg3 mi
8:00 PM60 °FLight rain. Overcast.3 mph88%30.04 "Hg4 mi
7:00 PM60 °FRain. Overcast.2 mph89%30.04 "Hg2 mi
6:00 PM62 °FRain. Overcast.1 mph83%30.03 "Hg4 mi
5:00 PM69 °FLight rain. Overcast.2 mph53%30.03 "Hg12 mi
4:00 PM70 °FOvercast.2 mph50%30.03 "Hg12 mi
3:00 PM69 °FOvercast.3 mph53%30.04 "Hg12 mi
2:00 PM70 °FOvercast.5 mph53%30.05 "Hg14 mi
Weather by CustomWeather, © 2014

See weather overviewHow to use our weather pages